#timestamp,LO_Frequency,Hit,StdDev 
1537365615.5,286047002.3,N
1537365635.3,286047002.4,N
1537365655.1,286047002.4,N
1537365675.9,286047004.4,N
1537365695.7,286047004.3,N
1537365715.6,286047001.7,N
1537365735.4,286047004.2,N
1537365755.2,286047001.4,N
1537365775.1,286047001.7,N
1537365776.0,286047001.7,N
1537365795.8,286047004.3,N
1537365815.6,286047003.4,N
1537365835.5,286047003.3,N
1537365855.3,286047005.9,Y
1537365875.2,286047004.0,P
1537365895.9,286047001.7,N
1537365915.7,286047003.2,P
1537365935.6,286047004.7,Y
1537365955.4,286047004.2,P
1537365975.2,286047003.6,P
1537365995.1,286047004.1,P
1537365996.0,286047004.1,Y
1537366015.8,286046998.6,P
1537366035.7,286046998.5,N
1537366055.5,286047000.4,N
1537366075.3,286046998.2,N
1537366095.2,286047000.7,N
1537366115.0,286046999.9,N
1537366115.9,286046999.9,N
1537366135.7,286046998.1,N
1537366155.6,286047001.2,N
1537366175.4,286046998.2,N
1537366195.3,286047000.6,N
1537366215.1,286047000.3,N
1537366216.0,286047000.3,N
1537366235.8,286047002.5,N
1537366255.7,286047002.8,N
1537366275.5,286047002.5,N
1537366295.3,286047000.1,N
1537366315.2,286047001.5,N
1537366335.0,286047004.8,N
1537366335.9,286047004.8,N
1537366355.8,286047005.4,N
1537366375.6,286047001.7,N
1537366395.4,286047001.4,N
1537366415.3,286047003.0,N
1537366435.1,286047005.2,N
1537366455.8,286047005.4,N
1537366475.7,286047006.0,N
1537366495.5,286047003.3,N
1537366515.4,286047007.6,Y
1537366535.2,286047007.3,P
1537366555.0,286047006.6,N
1537366555.9,286047006.6,N
1537366575.8,286047007.2,Y
1537366595.6,286046999.0,P
1537366615.4,286046999.2,N
1537366635.3,286046998.3,N
1537366655.1,286047001.1,N
1537366675.9,286047002.8,N
1537366695.7,286047000.9,N
1537366715.5,286046998.5,N
1537366735.4,286046998.8,N
1537366755.2,286046999.3,N
1537366775.0,286047002.8,N
1537366775.9,286047002.8,N
1537366795.8,286047001.4,N
1537366815.6,286047001.7,N
1537366835.5,286047004.3,N
1537366855.3,286047002.3,N
1537366875.1,286047002.5,N
1537366895.9,286047002.6,N
1537366915.7,286047002.1,N
1537366935.5,286047001.7,N
1537366955.4,286047002.5,N
1537366975.2,286047004.0,N
1537366995.1,286047003.4,N
1537366996.0,286047003.4,N
1537367015.8,286047005.8,N
1537367035.6,286047003.0,N
1537367055.5,286047004.1,N
1537367075.3,286047006.0,N
1537367095.1,286047005.6,N
1537367115.9,286047003.6,N
1537367135.7,286047003.8,N
1537367155.6,286047004.9,N
1537367175.4,286047004.9,N
1537367195.2,286047005.9,N
1537367215.1,286047003.8,N
1537367216.0,286047003.8,N
1537367235.8,286047005.4,N
1537367255.6,286047006.1,Y
1537367275.5,286047002.9,P
1537367295.3,286047003.8,P
1537367315.2,286047003.1,P
1537367335.9,286047001.3,Y
1537367355.7,286047000.3,P
1537367375.6,286046999.9,N
1537367395.4,286047000.5,N
1537367415.2,286047002.7,N
1537367435.1,286046999.7,N
1537367436.0,286046999.7,N
1537367455.8,286046999.8,N
1537367475.7,286047000.8,N
1537367495.5,286047002.8,N
1537367515.3,286046999.9,N
1537367535.2,286047000.1,N
1537367555.0,286047000.2,N
1537367555.9,286047000.2,N
1537367575.7,286047002.7,N
1537367595.6,286047002.1,N
1537367615.4,286047004.0,Y
1537367635.3,286047003.9,P
1537367655.1,286047004.3,N
1537367656.0,286047004.3,N
1537367675.8,286047002.6,N
1537367695.7,286047001.5,N
1537367715.5,286047001.8,N
1537367735.3,286047001.6,N
1537367755.2,286047001.6,N
1537367775.0,286047001.6,N
1537367775.9,286047001.6,N
1537367795.8,286047001.5,N
1537367815.6,286047001.6,N
1537367835.4,286047004.1,Y
1537367855.3,286047001.4,P
1537367875.1,286047001.8,P
1537367895.9,286047002.7,P
1537367915.7,286047002.3,Y
1537367935.5,286046999.1,P
1537367955.4,286047000.7,N
1537367975.2,286047002.0,N
1537367995.0,286047002.2,N
1537367995.9,286047002.2,N
1537368015.8,286047000.5,N
1537368035.6,286047000.1,N
1537368055.5,286047000.6,N
1537368075.3,286046999.7,N
1537368095.1,286047002.4,N
1537368115.9,286047002.3,N
1537368135.7,286047003.1,N
1537368155.5,286047004.0,Y
1537368175.4,286047002.5,P
1537368195.2,286047000.2,N
1537368215.1,286047002.6,N
1537368216.0,286047002.6,N
1537368235.8,286047001.6,N
1537368255.6,286047002.0,N
1537368275.5,286047002.8,Y
1537368295.3,286046998.7,P
1537368315.1,286047000.5,N
1537368335.9,286047002.8,N
1537368355.7,286046999.9,N
1537368375.6,286046999.9,N
1537368395.4,286047000.1,N
1537368415.2,286046999.9,N
1537368435.1,286047001.6,N
1537368436.0,286047001.6,N
1537368455.8,286047004.3,Y
1537368475.7,286046999.9,P
1537368495.5,286047002.8,P
1537368515.3,286047000.0,N
1537368535.2,286047002.8,N
1537368555.9,286047002.7,N
1537368575.7,286047003.6,N
1537368595.6,286047004.3,Y
1537368615.4,286047000.3,P
1537368635.3,286047001.0,N
1537368655.1,286047000.3,N
1537368656.0,286047000.3,N
1537368675.8,286047000.0,N
1537368695.7,286047000.9,N
1537368715.5,286047000.8,N
1537368735.4,286047000.2,N
1537368755.2,286046999.8,N
1537368775.0,286047000.4,N
1537368775.9,286047000.4,N
1537368795.8,286047002.4,Y
1537368815.6,286047001.8,P
1537368835.4,286047000.5,N
1537368855.3,286046999.9,N
1537368875.1,286047000.2,N
1537368895.9,286046999.8,N
1537368915.7,286047000.1,N
1537368935.5,286047002.7,Y
1537368955.4,286047002.2,P
1537368975.2,286046999.8,N
1537368995.1,286047002.4,N
1537368996.0,286047002.4,N
1537369015.8,286047002.1,N
1537369035.6,286047001.3,N
1537369055.5,286047002.2,N
1537369075.3,286047001.6,N
1537369095.1,286047004.2,Y
1537369115.9,286047001.9,P
1537369135.7,286047000.0,N
1537369155.6,286047001.8,N
1537369175.4,286047002.5,Y
1537369195.2,286047000.0,P
